period_start,C,m1,H,J0,J1,J2,J3,J4,J5,JA,JB,JC,JD,JJ,JK,JN,#
2014-11-18 00:04:35,0.07,0.08,0.00,20.93,25.25,28.18,4.85,25.92,1024.31,2042.00,3468.20,3320.97,3599.43,349.98,353.00,1.06,0000 0000 0000 0000 000000
2014-11-18 00:09:36,0.08,0.08,0.00,20.94,25.25,28.16,4.83,25.98,1024.40,2042.01,3467.13,3320.14,3598.63,350.11,352.77,1.09,0000 0000 0000 0000 000000
2014-11-18 00:14:38,0.07,0.08,0.00,20.95,25.25,28.18,4.95,26.04,1024.41,2042.02,3466.07,3319.52,3597.85,350.23,353.07,1.12,0000 0000 0000 0000 000000
2014-11-18 00:19:39,0.06,0.09,0.00,20.96,25.26,28.21,4.89,26.04,1024.43,2042.01,3464.97,3318.85,3596.97,350.14,352.78,1.15,0000 0000 0000 0000 000000
2014-11-18 00:24:40,0.09,0.09,0.00,20.95,25.27,28.17,4.84,25.91,1024.43,2042.00,3463.77,3318.01,3596.04,349.42,352.44,1.18,0000 0000 0000 0000 000000
2014-11-18 00:29:41,0.09,0.09,0.00,20.94,25.27,28.21,4.85,26.07,1024.44,2042.00,3462.57,3317.15,3595.12,349.93,353.05,1.21,0000 0000 0000 0000 000000
2014-11-18 00:34:42,0.09,0.09,0.00,20.93,25.27,28.23,4.86,25.96,1024.44,2042.00,3461.30,3316.25,3594.19,349.86,352.78,1.24,0000 0000 0000 0000 000000
2014-11-18 00:39:44,0.10,0.10,0.00,20.94,25.27,28.22,4.88,26.05,1024.43,2042.00,3459.94,3315.46,3593.24,350.22,352.82,1.27,0000 0000 0000 0000 000000
2014-11-18 00:44:45,0.08,0.10,0.00,20.93,25.27,28.21,4.86,26.12,1024.43,2042.00,3458.79,3314.73,3592.23,349.80,352.82,1.30,0000 0000 0000 0000 000000
2014-11-18 00:49:46,0.10,0.10,0.00,20.94,25.27,28.23,4.78,25.91,1024.43,2042.00,3457.52,3313.74,3591.27,349.93,353.21,1.33,0000 0000 0000 0000 000000
2014-11-18 00:54:48,0.07,0.10,0.00,20.94,25.28,28.23,4.95,25.96,1024.43,2042.00,3456.23,3312.88,3590.21,350.26,353.08,1.36,0000 0000 0000 0000 000000
2014-11-18 00:59:49,0.10,0.11,0.00,20.93,25.29,28.23,4.89,26.02,1024.43,2042.00,3454.84,3311.93,3589.07,349.71,352.76,1.39,0000 0000 0000 0000 000000
2014-11-18 01:04:50,0.11,0.11,0.00,20.94,25.29,28.25,4.83,25.90,1024.44,2041.99,3453.54,3310.92,3587.98,349.75,352.75,1.42,0000 0000 0000 0000 000000
2014-11-18 01:09:51,0.11,0.11,0.00,20.93,25.30,28.24,4.83,25.88,1024.43,2041.99,3452.10,3309.88,3586.84,350.29,352.93,1.44,0000 0000 0000 0000 000000
2014-11-18 01:14:52,0.10,0.12,0.00,20.96,25.30,28.23,4.86,25.83,1024.44,2041.99,3450.70,3308.92,3585.79,350.35,353.15,1.47,0000 0000 0000 0000 000000
2014-11-18 01:19:54,0.10,0.12,0.00,20.98,25.30,28.23,4.77,25.88,1024.44,2041.99,3449.27,3307.95,3584.73,349.33,352.07,1.50,0000 0000 0000 0000 000000
2014-11-18 01:24:55,0.11,0.12,0.00,20.99,25.30,28.23,4.80,25.99,1024.49,2041.99,3447.77,3306.91,3583.57,349.67,352.23,1.53,0000 0000 0000 0000 000000
2014-11-18 01:29:56,0.11,0.13,0.00,20.97,25.30,28.23,4.84,26.00,1024.60,2041.99,3446.26,3305.79,3582.57,349.47,352.47,1.56,0000 0000 0000 0000 000000
2014-11-18 01:34:57,0.10,0.13,0.00,20.98,25.30,28.24,4.78,26.00,1024.67,2041.99,3444.77,3304.80,3581.53,349.61,352.43,1.59,0000 0000 0000 0000 000000
2014-11-18 01:39:59,0.12,0.13,0.00,21.00,25.31,28.21,4.90,26.01,1024.67,2041.99,3443.21,3303.65,3580.19,350.15,353.06,1.62,0000 0000 0000 0000 000000
2014-11-18 01:45:00,0.10,0.14,0.00,21.02,25.32,28.19,4.88,25.93,1024.86,2041.99,3441.82,3302.68,3579.03,349.88,352.61,1.65,0000 0000 0000 0000 000000
2014-11-18 01:50:01,0.10,0.14,0.00,20.99,25.32,28.21,4.95,25.98,1024.80,2041.99,3440.43,3301.71,3577.98,350.29,353.15,1.68,0000 0000 0000 0000 000000
2014-11-18 01:55:02,0.13,0.14,0.00,21.01,25.32,28.23,4.83,26.09,1024.92,2041.99,3438.89,3300.62,3576.73,350.11,353.00,1.71,0000 0000 0000 0000 000000
2014-11-18 02:00:04,0.11,0.15,0.00,21.04,25.32,28.25,4.94,26.03,1024.92,2041.99,3437.34,3299.53,3575.59,350.30,353.17,1.74,0000 0000 0000 0000 000000
2014-11-18 02:05:05,0.10,0.15,0.00,21.02,25.33,28.24,4.84,25.99,1024.92,2041.99,3435.85,3298.54,3574.49,349.78,352.48,1.77,0000 0000 0000 0000 000000
2014-11-18 02:10:06,0.10,0.15,0.00,21.03,25.34,28.20,4.82,25.92,1024.96,2041.99,3434.54,3297.55,3573.32,349.79,352.82,1.80,0000 0000 0000 0000 000000
2014-11-18 02:15:07,0.09,0.16,0.00,21.06,25.35,28.23,4.85,25.93,1024.94,2041.98,3433.08,3296.54,3572.19,349.62,352.51,1.83,0000 0000 0000 0000 000000
2014-11-18 02:20:08,0.10,0.16,0.00,21.08,25.35,28.30,4.91,25.89,1024.95,2041.97,3431.72,3295.60,3571.08,350.31,352.98,1.85,0000 0000 0000 0000 000000
2014-11-18 02:25:10,0.10,0.16,0.00,21.11,25.35,28.26,4.84,25.87,1024.95,2041.97,3430.43,3294.57,3569.95,349.69,352.56,1.88,0000 0000 0000 0000 000000
2014-11-18 02:30:11,0.10,0.16,0.00,21.11,25.35,28.26,4.82,25.90,1024.96,2041.89,3428.92,3293.54,3568.84,350.18,353.03,1.91,0000 0000 0000 0000 000000
2014-11-18 02:35:13,0.09,0.17,0.00,21.08,25.36,28.27,4.94,25.92,1024.98,2041.89,3427.63,3292.58,3567.81,350.44,353.28,1.94,0000 0000 0000 0000 000000
2014-11-18 02:40:14,0.06,0.17,0.00,21.07,25.37,28.29,4.75,25.99,1025.06,2041.71,3426.17,3291.55,3566.60,349.22,352.14,1.97,0000 0000 0000 0000 000000
2014-11-18 02:45:15,0.11,0.17,0.00,21.07,25.37,28.27,4.89,25.88,1025.10,2041.67,3424.76,3290.64,3565.59,350.04,352.82,2.00,0000 0000 0000 0000 000000
2014-11-18 02:50:16,0.10,0.18,0.00,21.07,25.37,28.31,4.88,25.96,1025.31,2041.56,3423.35,3289.60,3564.43,350.05,353.27,2.03,0000 0000 0000 0000 000000
2014-11-18 02:55:18,0.10,0.18,0.00,21.06,25.37,28.36,4.85,25.89,1024.99,2041.61,3421.89,3288.67,3563.45,349.81,352.67,2.06,0000 0000 0000 0000 000000
2014-11-18 03:00:19,0.10,0.18,0.00,21.05,25.37,28.34,4.84,25.83,1025.16,2041.57,3420.48,3287.70,3562.30,350.23,353.29,2.09,0000 0000 0000 0000 000000
2014-11-18 03:05:20,0.11,0.19,0.00,21.05,25.37,28.34,4.88,25.88,1025.40,2041.70,3419.10,3286.69,3561.29,350.12,353.13,2.12,0000 0000 0000 0000 000000
2014-11-18 03:10:22,0.10,0.19,0.00,21.07,25.37,28.36,4.85,25.99,1025.40,2041.68,3417.68,3285.67,3560.12,349.53,352.54,2.15,0000 0000 0000 0000 000000
2014-11-18 03:15:23,0.11,0.19,0.00,21.04,25.37,28.40,4.90,26.23,1025.40,2041.61,3415.99,3284.58,3558.98,349.95,353.15,2.18,0000 0000 0000 0000 000000
2014-11-18 03:20:25,0.12,0.20,0.00,21.05,25.37,28.39,4.97,26.08,1025.40,2041.69,3414.40,3283.49,3557.85,350.38,353.39,2.21,0000 0000 0000 0000 000000
2014-11-18 03:25:26,0.11,0.20,0.00,21.02,25.37,28.36,4.86,26.02,1025.40,2041.58,3412.75,3282.31,3556.60,350.29,353.60,2.24,0000 0000 0000 0000 000000
2014-11-18 03:30:27,0.07,0.20,0.00,21.04,25.37,28.40,4.88,25.92,1025.40,2041.40,3411.28,3281.25,3555.41,349.82,352.89,2.27,0000 0000 0000 0000 000000
2014-11-18 03:35:28,0.13,0.21,0.00,21.03,25.37,28.41,4.85,25.83,1025.43,2041.51,3409.82,3280.26,3554.21,349.81,352.99,2.29,0000 0000 0000 0000 000000
2014-11-18 03:40:30,0.06,0.21,0.00,21.02,25.37,28.41,4.96,26.07,1025.45,2041.21,3408.31,3279.08,3552.94,350.41,353.38,2.32,0000 0000 0000 0000 000000
2014-11-18 03:45:31,0.15,0.21,0.00,21.01,25.37,28.42,4.82,26.02,1025.43,2041.36,3406.82,3278.05,3551.92,349.62,352.74,2.35,0000 0000 0000 0000 000000
2014-11-18 03:50:32,0.11,0.22,0.00,21.01,25.37,28.40,4.81,26.02,1025.42,2041.37,3405.24,3277.00,3550.68,349.76,352.88,2.38,0000 0000 0000 0000 000000
2014-11-18 03:55:33,0.11,0.22,0.00,21.00,25.37,28.39,4.94,26.02,1025.43,2041.43,3403.74,3275.90,3549.51,350.59,353.62,2.41,0000 0000 0000 0000 000000
2014-11-18 04:00:35,0.09,0.22,0.00,21.01,25.37,28.38,4.91,26.00,1025.45,2041.28,3402.23,3274.80,3548.38,349.77,353.09,2.44,0000 0000 0000 0000 000000
2014-11-18 04:05:36,0.11,0.22,0.00,20.98,25.37,28.40,4.82,26.02,1025.43,2041.24,3400.69,3273.74,3547.09,349.78,352.93,2.47,0000 0000 0000 0000 000000
2014-11-18 04:10:37,0.10,0.23,0.00,21.00,25.37,28.39,4.78,25.98,1025.42,2041.11,3399.24,3272.67,3545.78,349.85,352.95,2.50,0000 0000 0000 0000 000000
2014-11-18 04:15:38,0.12,0.23,0.00,20.99,25.37,28.41,4.85,25.96,1025.48,2041.11,3397.68,3271.57,3544.62,349.68,352.88,2.53,0000 0000 0000 0000 000000
2014-11-18 04:20:39,0.10,0.23,0.00,20.95,25.37,28.38,4.78,25.96,1025.53,2041.09,3396.07,3270.50,3543.48,349.83,353.12,2.56,0000 0000 0000 0000 000000
2014-11-18 04:25:41,0.11,0.24,0.00,20.99,25.37,28.37,4.94,26.09,1025.55,2041.08,3394.67,3269.51,3542.27,349.93,353.07,2.59,0000 0000 0000 0000 000000
2014-11-18 04:30:42,0.09,0.24,0.00,21.02,25.37,28.33,4.92,26.02,1025.80,2041.12,3393.36,3268.58,3541.29,349.94,353.12,2.62,0000 0000 0000 0000 000000
2014-11-18 04:35:43,0.11,0.24,0.00,21.04,25.37,28.32,4.94,26.10,1025.81,2041.14,3391.98,3267.66,3540.22,350.39,353.54,2.65,0000 0000 0000 0000 000000
2014-11-18 04:40:45,0.10,0.25,0.00,21.09,25.37,28.29,4.92,26.15,1025.83,2041.06,3390.52,3266.49,3539.19,349.90,352.91,2.68,0000 0000 0000 0000 000000
2014-11-18 04:45:46,0.10,0.25,0.00,21.16,25.37,28.20,4.92,26.13,1025.89,2041.08,3389.25,3265.60,3538.09,350.70,353.58,2.70,0000 0000 0000 0000 000000
2014-11-18 04:50:47,0.11,0.25,0.00,21.22,25.37,28.22,4.80,25.96,1025.89,2041.06,3387.80,3264.55,3537.00,349.21,352.23,2.73,0000 0000 0000 0000 000000
2014-11-18 04:55:49,0.09,0.26,0.00,21.28,25.38,28.15,4.84,26.03,1025.89,2041.06,3386.52,3263.66,3535.90,350.22,352.96,2.76,0000 0000 0000 0000 000000
2014-11-18 05:00:50,0.09,0.26,0.00,21.35,25.40,28.09,4.89,26.07,1025.89,2041.04,3385.09,3262.77,3534.76,350.12,352.77,2.79,0000 0000 0000 0000 000000
2014-11-18 05:05:51,0.10,0.26,0.00,21.38,25.40,28.07,4.90,26.02,1025.89,2041.02,3383.68,3261.83,3533.72,350.30,352.91,2.82,0000 0000 0000 0000 000000
2014-11-18 05:10:52,0.11,0.27,0.00,21.45,25.41,28.05,4.82,25.84,1025.89,2041.03,3382.42,3260.78,3532.57,349.70,352.41,2.85,0000 0000 0000 0000 000000
2014-11-18 05:15:54,0.11,0.27,0.00,21.49,25.42,28.03,4.82,25.93,1025.89,2041.00,3380.87,3259.73,3531.43,349.72,352.06,2.88,0000 0000 0000 0000 000000
2014-11-18 05:20:55,0.10,0.27,0.00,21.53,25.44,28.06,4.87,25.99,1025.90,2041.01,3379.53,3258.75,3530.45,350.25,352.84,2.91,0000 0000 0000 0000 000000
2014-11-18 05:25:56,0.11,0.27,0.00,21.57,25.45,28.09,4.85,25.93,1025.92,2041.00,3378.08,3257.69,3529.24,349.57,352.12,2.94,0000 0000 0000 0000 000000
2014-11-18 05:30:58,0.10,0.28,0.00,21.62,25.47,28.09,4.78,25.81,1025.91,2041.00,3376.72,3256.71,3528.11,350.12,352.56,2.97,0000 0000 0000 0000 000000
2014-11-18 05:35:59,0.11,0.28,0.00,21.67,25.50,28.13,4.83,26.01,1025.90,2040.99,3375.36,3255.68,3527.03,349.99,352.41,3.00,0000 0000 0000 0000 000000
2014-11-18 05:41:00,0.13,0.28,0.00,21.70,25.51,28.13,4.90,25.92,1025.93,2040.96,3373.73,3254.57,3525.73,350.22,352.49,3.03,0000 0000 0000 0000 000000
2014-11-18 05:46:01,0.10,0.29,0.00,21.73,25.54,28.16,4.82,25.84,1025.92,2040.96,3372.40,3253.51,3524.61,349.89,352.29,3.06,0000 0000 0000 0000 000000
2014-11-18 05:51:02,0.09,0.29,0.00,21.77,25.56,28.19,4.77,25.88,1025.96,2040.90,3370.92,3252.48,3523.49,349.92,352.27,3.09,0000 0000 0000 0000 000000
2014-11-18 05:56:04,0.05,0.29,0.00,21.80,25.59,28.21,4.80,25.93,1026.32,2040.61,3369.59,3251.45,3522.31,349.71,352.27,3.11,0000 0000 0000 0000 000000
2014-11-18 06:01:05,0.08,0.29,0.00,21.85,25.61,28.25,4.73,25.92,1026.26,2040.33,3368.12,3250.42,3521.18,349.86,352.20,3.14,0000 0000 0000 0000 000000
2014-11-18 06:06:06,0.07,0.30,0.00,21.88,25.64,28.29,4.89,25.85,1026.38,2040.05,3366.63,3249.28,3520.01,349.95,352.32,3.17,0000 0000 0000 0000 000000
2014-11-18 06:11:08,0.10,0.30,0.00,21.92,25.67,28.32,4.85,25.96,1026.38,2040.02,3365.14,3248.17,3518.91,349.76,352.07,3.20,0000 0000 0000 0000 000000
2014-11-18 06:16:09,0.12,0.30,0.00,21.93,25.70,28.33,4.88,25.93,1026.38,2040.00,3363.70,3247.07,3517.71,350.25,352.55,3.23,0000 0000 0000 0000 000000
2014-11-18 06:21:11,0.11,0.31,0.00,21.99,25.73,28.38,4.81,25.97,1026.38,2040.00,3362.21,3245.93,3516.49,349.55,351.78,3.26,0000 0000 0000 0000 000000
2014-11-18 06:26:12,0.12,0.31,0.00,22.00,25.76,28.40,4.77,26.02,1026.39,2039.99,3360.70,3244.81,3515.34,349.26,351.50,3.29,0000 0000 0000 0000 000000
2014-11-18 06:31:14,0.10,0.31,0.00,22.02,25.79,28.42,4.84,25.98,1026.40,2039.97,3359.25,3243.77,3514.07,350.25,352.61,3.32,0000 0000 0000 0000 000000
2014-11-18 06:36:15,0.12,0.32,0.00,22.06,25.81,28.48,4.78,25.93,1026.38,2039.95,3357.73,3242.71,3512.95,349.45,351.75,3.35,0000 0000 0000 0000 000000
2014-11-18 06:41:16,0.04,0.32,0.00,22.10,25.84,28.50,4.74,26.01,1026.39,2039.53,3356.14,3241.46,3511.68,350.02,351.80,3.38,0000 0000 0000 0000 000000
2014-11-18 06:46:17,0.06,0.32,0.00,22.13,25.87,28.52,4.83,25.90,1026.38,2039.15,3354.77,3240.44,3510.51,350.11,352.17,3.41,0000 0000 0000 0000 000000
2014-11-18 06:51:18,0.10,0.32,0.00,22.15,25.90,28.55,4.79,25.92,1026.40,2039.05,3353.31,3239.37,3509.31,349.54,351.74,3.44,0000 0000 0000 0000 000000
2014-11-18 06:56:20,0.11,0.33,0.00,22.18,25.93,28.57,4.86,25.93,1026.39,2039.00,3351.82,3238.23,3507.89,349.63,351.50,3.47,0000 0000 0000 0000 000000
2014-11-18 07:01:21,0.11,0.33,0.00,22.21,25.96,28.61,4.83,25.93,1026.39,2038.99,3350.47,3237.08,3506.65,350.20,351.86,3.50,0000 0000 0000 0000 000000
2014-11-18 07:06:22,0.12,0.33,0.00,22.27,25.99,28.64,4.78,25.96,1026.50,2038.97,3348.85,3235.93,3505.45,350.05,352.11,3.52,0000 0000 0000 0000 000000
2014-11-18 07:11:24,0.11,0.34,0.00,22.27,26.02,28.66,4.86,25.97,1026.70,2038.94,3347.43,3234.84,3504.35,349.94,351.93,3.55,0000 0000 0000 0000 000000
2014-11-18 07:16:25,0.03,0.34,0.00,22.30,26.05,28.70,4.80,25.92,1026.85,2038.47,3345.91,3233.72,3503.04,349.94,352.32,3.58,0000 0000 0000 0000 000000
2014-11-18 07:21:26,0.09,0.34,0.00,22.32,26.08,28.74,4.80,25.90,1026.87,2038.21,3344.55,3232.68,3501.92,349.57,351.70,3.61,0000 0000 0000 0000 000000
2014-11-18 07:26:27,0.09,0.34,0.00,22.34,26.11,28.77,4.88,25.83,1026.87,2038.07,3343.08,3231.64,3500.73,350.36,352.19,3.64,0000 0000 0000 0000 000000
2014-11-18 07:31:29,0.11,0.35,0.00,22.36,26.13,28.77,4.78,26.00,1026.88,2038.01,3341.59,3230.50,3499.62,349.95,351.78,3.67,0000 0000 0000 0000 000000
2014-11-18 07:36:30,0.11,0.35,0.00,22.40,26.16,28.79,4.79,25.97,1026.88,2038.00,3340.04,3229.32,3498.33,349.96,352.02,3.70,0000 0000 0000 0000 000000
2014-11-18 07:41:31,0.11,0.35,0.00,22.42,26.19,28.84,4.78,25.90,1026.92,2037.99,3338.52,3228.20,3497.05,349.67,351.35,3.73,0000 0000 0000 0000 000000
2014-11-18 07:46:32,0.10,0.36,0.00,22.44,26.21,28.85,4.91,26.03,1026.87,2037.98,3337.16,3227.17,3495.86,350.61,352.47,3.76,0000 0000 0000 0000 000000
2014-11-18 07:51:34,0.10,0.36,0.00,22.45,26.24,28.87,4.79,25.92,1026.88,2037.94,3335.70,3226.06,3494.78,349.73,351.46,3.79,0000 0000 0000 0000 000000
2014-11-18 07:56:35,0.08,0.36,0.00,22.47,26.27,28.92,4.89,26.00,1026.87,2037.73,3334.10,3224.93,3493.53,350.08,352.01,3.82,0000 0000 0000 0000 000000
2014-11-18 08:01:36,0.04,0.37,0.00,22.51,26.30,28.94,4.77,26.02,1026.89,2037.30,3332.65,3223.84,3492.29,350.14,351.82,3.85,0000 0000 0000 0000 000000
2014-11-18 08:06:38,0.09,0.37,0.00,22.53,26.32,28.96,4.90,25.91,1026.88,2037.05,3331.16,3222.70,3491.07,350.26,351.97,3.88,0000 0000 0000 0000 000000
2014-11-18 08:11:39,0.12,0.37,0.00,22.54,26.35,28.98,4.89,25.99,1026.88,2037.01,3329.70,3221.59,3489.95,350.12,351.78,3.91,0000 0000 0000 0000 000000
2014-11-18 08:16:40,0.10,0.37,0.00,22.56,26.37,29.00,4.81,25.93,1026.91,2037.00,3328.39,3220.61,3488.83,349.79,351.41,3.93,0000 0000 0000 0000 000000
2014-11-18 08:21:41,0.12,0.38,0.00,22.59,26.40,29.03,4.82,25.93,1026.93,2037.00,3326.89,3219.43,3487.55,349.76,351.32,3.96,0000 0000 0000 0000 000000
2014-11-18 08:26:43,0.11,0.38,0.00,22.60,26.42,29.06,4.81,25.92,1026.95,2037.00,3325.49,3218.43,3486.40,349.46,351.13,3.99,0000 0000 0000 0000 000000
2014-11-18 08:31:44,0.10,0.38,0.00,22.61,26.45,29.10,4.84,25.93,1027.10,2036.99,3324.10,3217.31,3485.18,350.44,352.15,4.02,0000 0000 0000 0000 000000
2014-11-18 08:36:45,0.11,0.39,0.00,22.62,26.47,29.12,4.79,25.93,1027.32,2036.95,3322.65,3216.28,3483.99,349.81,351.60,4.05,0000 0000 0000 0000 000000
2014-11-18 08:41:46,0.08,0.39,0.00,22.64,26.50,29.13,4.84,25.92,1027.19,2036.70,3321.12,3215.14,3482.81,350.04,351.77,4.08,0000 0000 0000 0000 000000
2014-11-18 08:46:47,0.03,0.39,0.00,22.66,26.52,29.16,4.81,25.97,1027.15,2036.32,3319.76,3214.14,3481.69,349.87,351.56,4.11,0000 0000 0000 0000 000000
2014-11-18 08:51:48,0.09,0.39,0.00,22.67,26.55,29.18,4.81,25.95,1027.20,2036.12,3318.32,3213.10,3480.62,349.83,351.57,4.14,0000 0000 0000 0000 000000
2014-11-18 08:56:49,0.10,0.40,0.00,22.68,26.57,29.20,4.75,25.98,1027.24,2036.04,3317.01,3212.09,3479.45,349.54,351.50,4.17,0000 0000 0000 0000 000000
2014-11-18 09:01:51,0.10,0.40,0.00,22.70,26.58,29.23,4.92,25.97,1027.21,2036.00,3315.71,3211.06,3478.11,350.29,351.85,4.20,0000 0000 0000 0000 000000
2014-11-18 09:06:52,0.10,0.40,0.00,22.73,26.61,29.24,4.84,25.96,1026.98,2036.00,3314.35,3210.02,3477.00,350.21,351.71,4.23,0000 0000 0000 0000 000000
2014-11-18 09:11:53,0.10,0.41,0.00,22.76,26.63,29.28,4.74,25.92,1027.31,2035.99,3312.82,3209.02,3475.96,349.67,351.26,4.26,0000 0000 0000 0000 000000
2014-11-18 09:16:54,0.11,0.41,0.00,22.75,26.65,29.31,4.81,26.02,1027.15,2035.99,3311.48,3207.99,3474.85,349.90,351.38,4.29,0000 0000 0000 0000 000000
2014-11-18 09:21:55,0.12,0.41,0.00,22.78,26.67,29.33,4.81,25.90,1027.34,2035.98,3310.04,3206.91,3473.58,350.31,351.87,4.32,0000 0000 0000 0000 000000
2014-11-18 09:26:56,0.10,0.42,0.00,22.79,26.70,29.34,4.75,25.91,1027.33,2035.97,3308.76,3205.90,3472.55,349.94,351.39,4.34,0000 0000 0000 0000 000000
2014-11-18 09:31:57,0.09,0.42,0.00,22.81,26.72,29.35,4.83,25.97,1027.29,2035.84,3307.18,3204.83,3471.47,350.23,351.86,4.37,0000 0000 0000 0000 000000
2014-11-18 09:36:59,0.03,0.42,0.00,22.83,26.74,29.38,4.81,25.96,1027.09,2035.49,3305.80,3203.79,3470.36,349.63,350.89,4.40,0000 0000 0000 0000 000000
2014-11-18 09:42:00,0.09,0.42,0.00,22.85,26.76,29.40,4.82,25.96,1027.26,2035.09,3304.26,3202.70,3469.02,349.83,351.19,4.43,0000 0000 0000 0000 000000
2014-11-18 09:47:01,0.09,0.43,0.00,22.86,26.77,29.42,4.79,25.82,1027.36,2035.04,3302.94,3201.73,3467.94,350.18,351.72,4.46,0000 0000 0000 0000 000000
2014-11-18 09:52:03,0.10,0.43,0.00,22.86,26.80,29.45,4.81,25.99,1027.34,2035.00,3301.59,3200.76,3466.88,349.76,351.29,4.49,0000 0000 0000 0000 000000
2014-11-18 09:57:04,0.11,0.43,0.00,22.88,26.82,29.45,4.81,25.90,1027.36,2035.00,3300.32,3199.73,3465.76,349.96,351.34,4.52,0000 0000 0000 0000 000000
2014-11-18 10:02:05,0.10,0.43,0.00,22.91,26.83,29.47,4.91,25.98,1027.36,2035.00,3298.95,3198.85,3464.62,350.40,351.98,4.55,0000 0000 0000 0000 000000
2014-11-18 10:07:07,0.12,0.44,0.00,22.91,26.85,29.51,4.73,25.93,1027.36,2035.00,3297.44,3197.74,3463.58,349.46,351.37,4.58,0000 0000 0000 0000 000000
2014-11-18 10:12:08,0.10,0.44,0.00,22.93,26.87,29.54,4.83,25.97,1027.36,2034.98,3296.11,3196.64,3462.23,350.03,351.43,4.61,0000 0000 0000 0000 000000
2014-11-18 10:17:09,0.11,0.44,0.00,22.95,26.89,29.55,4.80,25.96,1027.36,2034.95,3294.57,3195.69,3461.16,350.11,351.45,4.64,0000 0000 0000 0000 000000
2014-11-18 10:22:10,0.09,0.45,0.00,22.97,26.91,29.56,4.79,25.97,1027.35,2034.91,3293.27,3194.62,3460.17,350.00,351.42,4.67,0000 0000 0000 0000 000000
2014-11-18 10:27:11,0.08,0.45,0.00,22.96,26.92,29.59,4.89,25.98,1027.36,2034.75,3291.83,3193.68,3459.01,350.31,351.86,4.70,0000 0000 0000 0000 000000
2014-11-18 10:32:12,0.07,0.45,0.00,22.98,26.95,29.60,4.80,25.98,1027.36,2034.42,3290.49,3192.61,3457.85,350.37,351.78,4.73,0000 0000 0000 0000 000000
2014-11-18 10:37:13,0.06,0.45,0.00,23.00,26.96,29.63,4.82,25.98,1027.36,2034.12,3289.01,3191.57,3456.70,349.82,351.16,4.75,0000 0000 0000 0000 000000
2014-11-18 10:42:14,0.11,0.46,0.00,23.03,26.97,29.63,4.90,26.01,1027.36,2034.04,3287.66,3190.48,3455.62,350.25,351.61,4.78,0000 0000 0000 0000 000000
2014-11-18 10:47:16,0.09,0.46,0.00,23.02,27.00,29.66,4.84,25.98,1027.36,2034.02,3286.43,3189.60,3454.64,349.64,351.16,4.81,0000 0000 0000 0000 000000
2014-11-18 10:52:17,0.11,0.46,0.00,23.03,27.01,29.69,4.83,25.98,1027.36,2034.01,3285.03,3188.56,3453.49,350.11,351.54,4.84,0000 0000 0000 0000 000000
2014-11-18 10:57:18,0.10,0.47,0.00,23.04,27.02,29.69,4.82,25.88,1027.36,2034.00,3283.67,3187.64,3452.54,350.16,351.47,4.87,0000 0000 0000 0000 000000
2014-11-18 11:02:19,0.10,0.47,0.00,23.05,27.05,29.72,4.82,25.90,1027.36,2034.00,3282.33,3186.64,3451.39,349.35,350.65,4.90,0000 0000 0000 0000 000000
2014-11-18 11:07:21,0.12,0.47,0.00,23.05,27.06,29.73,4.83,25.92,1027.36,2033.99,3280.86,3185.55,3450.15,350.33,351.60,4.93,0000 0000 0000 0000 000000
2014-11-18 11:12:22,0.10,0.48,0.00,23.06,27.07,29.76,4.80,25.98,1027.36,2033.99,3279.62,3184.59,3449.13,349.95,351.17,4.96,0000 0000 0000 0000 000000
2014-11-18 11:17:24,0.11,0.48,0.00,23.09,27.10,29.75,4.71,25.93,1027.36,2033.97,3278.08,3183.60,3448.07,349.50,350.93,4.99,0000 0000 0000 0000 000000
2014-11-18 11:22:25,0.11,0.48,0.00,23.11,27.11,29.75,4.84,25.96,1027.36,2033.96,3276.65,3182.52,3446.93,349.77,351.18,5.02,0000 0000 0000 0000 000000
2014-11-18 11:27:26,0.10,0.49,0.00,23.11,27.12,29.78,4.81,25.98,1027.36,2033.87,3275.36,3181.49,3445.84,349.94,351.16,5.05,0000 0000 0000 0000 000000
2014-11-18 11:32:27,0.09,0.49,0.00,23.12,27.14,29.79,4.83,25.92,1027.37,2033.79,3273.92,3180.48,3444.81,350.01,351.13,5.08,0000 0000 0000 0000 000000
2014-11-18 11:37:29,0.05,0.49,0.00,23.13,27.15,29.83,4.85,26.06,1027.37,2033.43,3272.57,3179.55,3443.72,349.97,351.26,5.11,0000 0000 0000 0000 000000
2014-11-18 11:42:30,0.09,0.49,0.00,23.14,27.17,29.85,4.77,26.04,1027.36,2033.19,3271.04,3178.44,3442.59,349.47,350.90,5.14,0000 0000 0000 0000 000000
2014-11-18 11:47:31,0.08,0.49,0.00,23.16,27.18,29.86,4.82,26.04,1027.37,2033.09,3269.80,3177.49,3441.40,349.78,351.07,5.16,0000 0000 0000 0000 000000
2014-11-18 11:52:33,0.10,0.50,0.00,23.16,27.20,29.85,4.79,25.97,1027.37,2033.03,3268.58,3176.47,3440.31,349.85,350.92,5.19,0000 0000 0000 0000 000000
2014-11-18 11:57:34,0.09,0.50,0.00,23.15,27.21,29.86,4.85,25.94,1027.36,2033.00,3267.40,3175.54,3439.07,350.14,351.22,5.22,0000 0000 0000 0000 000000
2014-11-18 12:02:35,0.10,0.50,0.00,23.17,27.22,29.93,4.86,26.09,1027.36,2033.00,3265.96,3174.60,3438.12,350.44,351.62,5.25,0000 0000 0000 0000 000000
2014-11-18 12:07:36,0.11,0.51,0.00,23.16,27.23,29.91,4.78,26.03,1027.37,2033.00,3264.57,3173.66,3437.27,349.43,350.49,5.28,0000 0000 0000 0000 000000
2014-11-18 12:12:38,0.09,0.51,0.00,23.17,27.25,29.97,4.78,26.02,1027.37,2033.00,3263.34,3172.73,3436.23,349.93,351.09,5.31,0000 0000 0000 0000 000000
2014-11-18 12:17:39,0.10,0.51,0.00,23.18,27.26,29.96,4.83,26.04,1027.37,2033.00,3262.00,3171.71,3435.23,349.69,350.88,5.34,0000 0000 0000 0000 000000
2014-11-18 12:22:40,0.11,0.52,0.00,23.20,27.27,29.99,4.88,25.94,1027.39,2033.00,3260.63,3170.73,3434.12,349.72,350.86,5.37,0000 0000 0000 0000 000000
2014-11-18 12:27:42,0.10,0.52,0.00,23.22,27.28,30.00,4.85,26.03,1027.51,2032.99,3259.29,3169.78,3433.11,350.42,351.53,5.40,0000 0000 0000 0000 000000
2014-11-18 12:32:43,0.09,0.52,0.00,23.22,27.30,30.00,4.86,25.94,1027.58,2032.98,3258.12,3168.88,3432.00,350.27,351.55,5.43,0000 0000 0000 0000 000000
2014-11-18 12:37:45,0.12,0.53,0.00,23.24,27.30,29.99,4.89,25.98,1027.72,2032.92,3256.73,3167.80,3430.80,350.55,351.74,5.46,0000 0000 0000 0000 000000
2014-11-18 12:42:46,0.11,0.53,0.00,23.22,27.31,30.01,4.81,26.01,1027.56,2032.88,3255.62,3166.86,3429.61,350.21,351.11,5.49,0000 0000 0000 0000 000000
2014-11-18 12:47:47,0.08,0.53,0.00,23.23,27.32,30.01,4.80,25.93,1027.62,2032.82,3254.34,3165.93,3428.63,350.25,351.43,5.52,0000 0000 0000 0000 000000
2014-11-18 12:52:48,0.03,0.53,0.00,23.24,27.33,30.07,4.88,25.91,1027.66,2032.45,3252.89,3164.96,3427.64,350.34,351.52,5.55,0000 0000 0000 0000 000000
2014-11-18 12:57:50,0.09,0.53,0.00,23.25,27.35,30.05,4.91,25.92,1027.72,2032.24,3251.59,3164.04,3426.63,350.65,351.73,5.57,0000 0000 0000 0000 000000
2014-11-18 13:02:51,0.08,0.54,0.00,23.28,27.35,30.07,4.85,25.96,1027.48,2032.20,3250.30,3163.12,3425.74,350.09,351.19,5.60,0000 0000 0000 0000 000000
2014-11-18 13:07:51,0.12,0.54,0.00,23.28,27.36,30.09,4.79,25.86,1027.48,2032.29,3248.94,3162.21,3424.86,349.86,351.01,5.63,0000 0000 0000 0000 000000